<?xml version="1.0" encoding="UTF-8" standalone="no" ?>
<gpx xmlns="http://www.topografix.com/GPX/1/1" xmlns:xsi="http://www.w3.org/2001/XMLSchema-instance" xsi:schemaLocation="http://www.topografix.com/GPX/1/1 http://www.topografix.com/GPX/1/1/gpx.xsd" version="1.1" creator="VisuGPX - https://www.visugpx.com">
  <metadata>
    <name>Parcours VTT Aglo 2021</name>
  </metadata>
  <trk>
    <name><![CDATA[Bleu Orgnac]]></name>
    <extensions>
      <line xmlns="http://www.topografix.com/GPX/gpx_style/0/2">
        <color>0000fa</color>
        <width>4</width>
      </line>
    </extensions>
    <trkseg>
      <trkpt lat="44.3183" lon="4.41199">
        <ele>303</ele>
        <time>2021-07-04T13:20:09Z</time>
      </trkpt>
      <trkpt lat="44.3183" lon="4.41199">
        <ele>303</ele>
        <time>2021-07-04T13:20:09Z</time>
      </trkpt>
      <trkpt lat="44.31829" lon="4.41234">
        <ele>302</ele>
        <time>2021-07-04T13:20:15Z</time>
      </trkpt>
      <trkpt lat="44.31833" lon="4.41246">
        <ele>302</ele>
        <time>2021-07-04T13:20:17Z</time>
      </trkpt>
      <trkpt lat="44.3184" lon="4.41273">
        <ele>303</ele>
        <time>2021-07-04T13:20:22Z</time>
      </trkpt>
      <trkpt lat="44.31842" lon="4.413">
        <ele>304</ele>
        <time>2021-07-04T13:20:26Z</time>
      </trkpt>
      <trkpt lat="44.31842" lon="4.413">
        <ele>304</ele>
        <time>2021-07-04T13:20:26Z</time>
      </trkpt>
      <trkpt lat="44.31841" lon="4.41322">
        <ele>305</ele>
        <time>2021-07-04T13:20:30Z</time>
      </trkpt>
      <trkpt lat="44.31834" lon="4.41353">
        <ele>305</ele>
        <time>2021-07-04T13:20:36Z</time>
      </trkpt>
      <trkpt lat="44.31828" lon="4.41383">
        <ele>304</ele>
        <time>2021-07-04T13:20:41Z</time>
      </trkpt>
      <trkpt lat="44.31844" lon="4.41389">
        <ele>305</ele>
        <time>2021-07-04T13:20:45Z</time>
      </trkpt>
      <trkpt lat="44.31886" lon="4.41397">
        <ele>309</ele>
        <time>2021-07-04T13:20:54Z</time>
      </trkpt>
      <trkpt lat="44.31902" lon="4.41394">
        <ele>311</ele>
        <time>2021-07-04T13:20:58Z</time>
      </trkpt>
      <trkpt lat="44.31928" lon="4.41406">
        <ele>313</ele>
        <time>2021-07-04T13:21:05Z</time>
      </trkpt>
      <trkpt lat="44.31942" lon="4.41406">
        <ele>314</ele>
        <time>2021-07-04T13:21:08Z</time>
      </trkpt>
      <trkpt lat="44.31953" lon="4.41399">
        <ele>314</ele>
        <time>2021-07-04T13:21:11Z</time>
      </trkpt>
      <trkpt lat="44.32031" lon="4.41433">
        <ele>316</ele>
        <time>2021-07-04T13:21:30Z</time>
      </trkpt>
      <trkpt lat="44.32063" lon="4.41441">
        <ele>316</ele>
        <time>2021-07-04T13:21:37Z</time>
      </trkpt>
      <trkpt lat="44.32089" lon="4.41455">
        <ele>316</ele>
        <time>2021-07-04T13:21:44Z</time>
      </trkpt>
      <trkpt lat="44.32104" lon="4.41471">
        <ele>316</ele>
        <time>2021-07-04T13:21:48Z</time>
      </trkpt>
      <trkpt lat="44.32135" lon="4.41467">
        <ele>316</ele>
        <time>2021-07-04T13:21:56Z</time>
      </trkpt>
      <trkpt lat="44.32151" lon="4.41511">
        <ele>315</ele>
        <time>2021-07-04T13:22:04Z</time>
      </trkpt>
      <trkpt lat="44.32133" lon="4.41533">
        <ele>315</ele>
        <time>2021-07-04T13:22:09Z</time>
      </trkpt>
      <trkpt lat="44.32105" lon="4.41571">
        <ele>313</ele>
        <time>2021-07-04T13:22:19Z</time>
      </trkpt>
      <trkpt lat="44.3208" lon="4.4162">
        <ele>312</ele>
        <time>2021-07-04T13:22:29Z</time>
      </trkpt>
      <trkpt lat="44.32046" lon="4.41707">
        <ele>309</ele>
        <time>2021-07-04T13:22:45Z</time>
      </trkpt>
      <trkpt lat="44.32031" lon="4.41743">
        <ele>307</ele>
        <time>2021-07-04T13:22:52Z</time>
      </trkpt>
      <trkpt lat="44.32015" lon="4.41765">
        <ele>305</ele>
        <time>2021-07-04T13:22:57Z</time>
      </trkpt>
      <trkpt lat="44.3199" lon="4.41786">
        <ele>304</ele>
        <time>2021-07-04T13:23:04Z</time>
      </trkpt>
      <trkpt lat="44.31983" lon="4.41787">
        <ele>304</ele>
        <time>2021-07-04T13:23:06Z</time>
      </trkpt>
      <trkpt lat="44.31951" lon="4.41795">
        <ele>304</ele>
        <time>2021-07-04T13:23:13Z</time>
      </trkpt>
      <trkpt lat="44.31912" lon="4.41804">
        <ele>305</ele>
        <time>2021-07-04T13:23:23Z</time>
      </trkpt>
      <trkpt lat="44.31823" lon="4.41807">
        <ele>302</ele>
        <time>2021-07-04T13:23:43Z</time>
      </trkpt>
      <trkpt lat="44.31797" lon="4.4181">
        <ele>302</ele>
        <time>2021-07-04T13:23:50Z</time>
      </trkpt>
      <trkpt lat="44.31778" lon="4.41818">
        <ele>302</ele>
        <time>2021-07-04T13:23:54Z</time>
      </trkpt>
      <trkpt lat="44.31765" lon="4.41821">
        <ele>302</ele>
        <time>2021-07-04T13:23:57Z</time>
      </trkpt>
      <trkpt lat="44.31755" lon="4.41825">
        <ele>301</ele>
        <time>2021-07-04T13:24:00Z</time>
      </trkpt>
      <trkpt lat="44.31746" lon="4.4183">
        <ele>301</ele>
        <time>2021-07-04T13:24:02Z</time>
      </trkpt>
      <trkpt lat="44.31732" lon="4.41838">
        <ele>301</ele>
        <time>2021-07-04T13:24:05Z</time>
      </trkpt>
      <trkpt lat="44.31717" lon="4.41853">
        <ele>302</ele>
        <time>2021-07-04T13:24:10Z</time>
      </trkpt>
      <trkpt lat="44.31703" lon="4.41871">
        <ele>303</ele>
        <time>2021-07-04T13:24:14Z</time>
      </trkpt>
      <trkpt lat="44.31689" lon="4.4188">
        <ele>303</ele>
        <time>2021-07-04T13:24:18Z</time>
      </trkpt>
      <trkpt lat="44.31678" lon="4.41883">
        <ele>302</ele>
        <time>2021-07-04T13:24:20Z</time>
      </trkpt>
      <trkpt lat="44.31663" lon="4.41889">
        <ele>302</ele>
        <time>2021-07-04T13:24:24Z</time>
      </trkpt>
      <trkpt lat="44.31649" lon="4.41893">
        <ele>303</ele>
        <time>2021-07-04T13:24:27Z</time>
      </trkpt>
      <trkpt lat="44.31639" lon="4.41905">
        <ele>303</ele>
        <time>2021-07-04T13:24:30Z</time>
      </trkpt>
      <trkpt lat="44.31639" lon="4.41918">
        <ele>304</ele>
        <time>2021-07-04T13:24:33Z</time>
      </trkpt>
      <trkpt lat="44.3165" lon="4.41933">
        <ele>305</ele>
        <time>2021-07-04T13:24:36Z</time>
      </trkpt>
      <trkpt lat="44.31662" lon="4.41942">
        <ele>306</ele>
        <time>2021-07-04T13:24:39Z</time>
      </trkpt>
      <trkpt lat="44.31665" lon="4.41952">
        <ele>307</ele>
        <time>2021-07-04T13:24:41Z</time>
      </trkpt>
      <trkpt lat="44.31657" lon="4.41968">
        <ele>307</ele>
        <time>2021-07-04T13:24:44Z</time>
      </trkpt>
      <trkpt lat="44.31657" lon="4.41975">
        <ele>307</ele>
        <time>2021-07-04T13:24:46Z</time>
      </trkpt>
      <trkpt lat="44.31654" lon="4.42001">
        <ele>308</ele>
        <time>2021-07-04T13:24:50Z</time>
      </trkpt>
      <trkpt lat="44.31645" lon="4.42013">
        <ele>307</ele>
        <time>2021-07-04T13:24:53Z</time>
      </trkpt>
      <trkpt lat="44.3163" lon="4.42012">
        <ele>307</ele>
        <time>2021-07-04T13:24:56Z</time>
      </trkpt>
      <trkpt lat="44.31612" lon="4.42027">
        <ele>305</ele>
        <time>2021-07-04T13:25:01Z</time>
      </trkpt>
      <trkpt lat="44.31577" lon="4.42062">
        <ele>303</ele>
        <time>2021-07-04T13:25:11Z</time>
      </trkpt>
      <trkpt lat="44.3154" lon="4.42097">
        <ele>300</ele>
        <time>2021-07-04T13:25:22Z</time>
      </trkpt>
      <trkpt lat="44.31505" lon="4.42133">
        <ele>296</ele>
        <time>2021-07-04T13:25:32Z</time>
      </trkpt>
      <trkpt lat="44.31469" lon="4.42167">
        <ele>294</ele>
        <time>2021-07-04T13:25:42Z</time>
      </trkpt>
      <trkpt lat="44.3146" lon="4.42188">
        <ele>295</ele>
        <time>2021-07-04T13:25:46Z</time>
      </trkpt>
      <trkpt lat="44.31441" lon="4.42207">
        <ele>295</ele>
        <time>2021-07-04T13:25:52Z</time>
      </trkpt>
      <trkpt lat="44.31431" lon="4.42231">
        <ele>296</ele>
        <time>2021-07-04T13:25:56Z</time>
      </trkpt>
      <trkpt lat="44.31439" lon="4.42254">
        <ele>298</ele>
        <time>2021-07-04T13:26:01Z</time>
      </trkpt>
      <trkpt lat="44.31451" lon="4.42287">
        <ele>299</ele>
        <time>2021-07-04T13:26:07Z</time>
      </trkpt>
      <trkpt lat="44.31461" lon="4.42306">
        <ele>301</ele>
        <time>2021-07-04T13:26:11Z</time>
      </trkpt>
      <trkpt lat="44.31468" lon="4.42322">
        <ele>302</ele>
        <time>2021-07-04T13:26:14Z</time>
      </trkpt>
      <trkpt lat="44.31476" lon="4.4234">
        <ele>303</ele>
        <time>2021-07-04T13:26:17Z</time>
      </trkpt>
      <trkpt lat="44.31484" lon="4.42352">
        <ele>303</ele>
        <time>2021-07-04T13:26:20Z</time>
      </trkpt>
      <trkpt lat="44.31491" lon="4.42365">
        <ele>303</ele>
        <time>2021-07-04T13:26:23Z</time>
      </trkpt>
      <trkpt lat="44.31501" lon="4.42377">
        <ele>303</ele>
        <time>2021-07-04T13:26:26Z</time>
      </trkpt>
      <trkpt lat="44.31507" lon="4.42393">
        <ele>303</ele>
        <time>2021-07-04T13:26:29Z</time>
      </trkpt>
      <trkpt lat="44.31501" lon="4.42408">
        <ele>301</ele>
        <time>2021-07-04T13:26:32Z</time>
      </trkpt>
      <trkpt lat="44.31497" lon="4.4242">
        <ele>301</ele>
        <time>2021-07-04T13:26:34Z</time>
      </trkpt>
      <trkpt lat="44.3149" lon="4.42439">
        <ele>302</ele>
        <time>2021-07-04T13:26:38Z</time>
      </trkpt>
      <trkpt lat="44.31482" lon="4.4248">
        <ele>304</ele>
        <time>2021-07-04T13:26:45Z</time>
      </trkpt>
      <trkpt lat="44.3146" lon="4.42478">
        <ele>304</ele>
        <time>2021-07-04T13:26:50Z</time>
      </trkpt>
      <trkpt lat="44.31454" lon="4.42501">
        <ele>305</ele>
        <time>2021-07-04T13:26:54Z</time>
      </trkpt>
      <trkpt lat="44.31451" lon="4.42519">
        <ele>305</ele>
        <time>2021-07-04T13:26:57Z</time>
      </trkpt>
      <trkpt lat="44.31468" lon="4.42526">
        <ele>306</ele>
        <time>2021-07-04T13:27:01Z</time>
      </trkpt>
      <trkpt lat="44.31461" lon="4.42555">
        <ele>307</ele>
        <time>2021-07-04T13:27:06Z</time>
      </trkpt>
      <trkpt lat="44.31453" lon="4.42575">
        <ele>307</ele>
        <time>2021-07-04T13:27:10Z</time>
      </trkpt>
      <trkpt lat="44.31441" lon="4.42602">
        <ele>308</ele>
        <time>2021-07-04T13:27:15Z</time>
      </trkpt>
      <trkpt lat="44.3143" lon="4.4263">
        <ele>308</ele>
        <time>2021-07-04T13:27:21Z</time>
      </trkpt>
      <trkpt lat="44.31421" lon="4.42676">
        <ele>308</ele>
        <time>2021-07-04T13:27:29Z</time>
      </trkpt>
      <trkpt lat="44.31416" lon="4.4273">
        <ele>308</ele>
        <time>2021-07-04T13:27:38Z</time>
      </trkpt>
      <trkpt lat="44.31408" lon="4.4276">
        <ele>308</ele>
        <time>2021-07-04T13:27:43Z</time>
      </trkpt>
      <trkpt lat="44.31398" lon="4.42801">
        <ele>308</ele>
        <time>2021-07-04T13:27:50Z</time>
      </trkpt>
      <trkpt lat="44.31401" lon="4.42828">
        <ele>309</ele>
        <time>2021-07-04T13:27:55Z</time>
      </trkpt>
      <trkpt lat="44.31386" lon="4.4287">
        <ele>308</ele>
        <time>2021-07-04T13:28:03Z</time>
      </trkpt>
      <trkpt lat="44.31376" lon="4.42917">
        <ele>308</ele>
        <time>2021-07-04T13:28:11Z</time>
      </trkpt>
      <trkpt lat="44.31363" lon="4.42979">
        <ele>308</ele>
        <time>2021-07-04T13:28:22Z</time>
      </trkpt>
      <trkpt lat="44.31356" lon="4.43013">
        <ele>308</ele>
        <time>2021-07-04T13:28:28Z</time>
      </trkpt>
      <trkpt lat="44.3134" lon="4.43089">
        <ele>310</ele>
        <time>2021-07-04T13:28:41Z</time>
      </trkpt>
      <trkpt lat="44.31336" lon="4.43111">
        <ele>310</ele>
        <time>2021-07-04T13:28:45Z</time>
      </trkpt>
      <trkpt lat="44.31306" lon="4.43131">
        <ele>309</ele>
        <time>2021-07-04T13:28:53Z</time>
      </trkpt>
      <trkpt lat="44.31266" lon="4.43156">
        <ele>308</ele>
        <time>2021-07-04T13:29:03Z</time>
      </trkpt>
      <trkpt lat="44.31258" lon="4.4316">
        <ele>307</ele>
        <time>2021-07-04T13:29:05Z</time>
      </trkpt>
      <trkpt lat="44.31246" lon="4.43164">
        <ele>307</ele>
        <time>2021-07-04T13:29:08Z</time>
      </trkpt>
      <trkpt lat="44.31238" lon="4.43165">
        <ele>307</ele>
        <time>2021-07-04T13:29:10Z</time>
      </trkpt>
      <trkpt lat="44.31228" lon="4.43168">
        <ele>307</ele>
        <time>2021-07-04T13:29:12Z</time>
      </trkpt>
      <trkpt lat="44.31216" lon="4.43167">
        <ele>307</ele>
        <time>2021-07-04T13:29:15Z</time>
      </trkpt>
      <trkpt lat="44.31181" lon="4.43154">
        <ele>306</ele>
        <time>2021-07-04T13:29:23Z</time>
      </trkpt>
      <trkpt lat="44.31142" lon="4.43137">
        <ele>305</ele>
        <time>2021-07-04T13:29:33Z</time>
      </trkpt>
      <trkpt lat="44.31123" lon="4.4313">
        <ele>305</ele>
        <time>2021-07-04T13:29:37Z</time>
      </trkpt>
      <trkpt lat="44.3111" lon="4.43128">
        <ele>306</ele>
        <time>2021-07-04T13:29:40Z</time>
      </trkpt>
      <trkpt lat="44.31099" lon="4.43129">
        <ele>306</ele>
        <time>2021-07-04T13:29:43Z</time>
      </trkpt>
      <trkpt lat="44.31076" lon="4.43135">
        <ele>306</ele>
        <time>2021-07-04T13:29:48Z</time>
      </trkpt>
      <trkpt lat="44.30948" lon="4.43174">
        <ele>304</ele>
        <time>2021-07-04T13:30:19Z</time>
      </trkpt>
      <trkpt lat="44.30906" lon="4.43188">
        <ele>301</ele>
        <time>2021-07-04T13:30:29Z</time>
      </trkpt>
      <trkpt lat="44.3089" lon="4.43192">
        <ele>300</ele>
        <time>2021-07-04T13:30:33Z</time>
      </trkpt>
      <trkpt lat="44.30873" lon="4.43196">
        <ele>298</ele>
        <time>2021-07-04T13:30:37Z</time>
      </trkpt>
      <trkpt lat="44.3086" lon="4.43201">
        <ele>297</ele>
        <time>2021-07-04T13:30:40Z</time>
      </trkpt>
      <trkpt lat="44.30846" lon="4.43204">
        <ele>296</ele>
        <time>2021-07-04T13:30:43Z</time>
      </trkpt>
      <trkpt lat="44.30834" lon="4.43208">
        <ele>295</ele>
        <time>2021-07-04T13:30:46Z</time>
      </trkpt>
      <trkpt lat="44.30824" lon="4.43214">
        <ele>295</ele>
        <time>2021-07-04T13:30:49Z</time>
      </trkpt>
      <trkpt lat="44.30818" lon="4.43216">
        <ele>295</ele>
        <time>2021-07-04T13:30:50Z</time>
      </trkpt>
      <trkpt lat="44.3081" lon="4.43218">
        <ele>294</ele>
        <time>2021-07-04T13:30:52Z</time>
      </trkpt>
      <trkpt lat="44.308" lon="4.4322">
        <ele>294</ele>
        <time>2021-07-04T13:30:54Z</time>
      </trkpt>
      <trkpt lat="44.30788" lon="4.43222">
        <ele>293</ele>
        <time>2021-07-04T13:30:57Z</time>
      </trkpt>
      <trkpt lat="44.30774" lon="4.43228">
        <ele>293</ele>
        <time>2021-07-04T13:31:01Z</time>
      </trkpt>
      <trkpt lat="44.30758" lon="4.43233">
        <ele>293</ele>
        <time>2021-07-04T13:31:05Z</time>
      </trkpt>
      <trkpt lat="44.30744" lon="4.43237">
        <ele>292</ele>
        <time>2021-07-04T13:31:08Z</time>
      </trkpt>
      <trkpt lat="44.30731" lon="4.4324">
        <ele>292</ele>
        <time>2021-07-04T13:31:11Z</time>
      </trkpt>
      <trkpt lat="44.30716" lon="4.43246">
        <ele>292</ele>
        <time>2021-07-04T13:31:15Z</time>
      </trkpt>
      <trkpt lat="44.30703" lon="4.4325">
        <ele>292</ele>
        <time>2021-07-04T13:31:18Z</time>
      </trkpt>
      <trkpt lat="44.30689" lon="4.43255">
        <ele>292</ele>
        <time>2021-07-04T13:31:21Z</time>
      </trkpt>
      <trkpt lat="44.30676" lon="4.43261">
        <ele>292</ele>
        <time>2021-07-04T13:31:24Z</time>
      </trkpt>
      <trkpt lat="44.30661" lon="4.43266">
        <ele>292</ele>
        <time>2021-07-04T13:31:28Z</time>
      </trkpt>
      <trkpt lat="44.30647" lon="4.4327">
        <ele>292</ele>
        <time>2021-07-04T13:31:31Z</time>
      </trkpt>
      <trkpt lat="44.30633" lon="4.43275">
        <ele>292</ele>
        <time>2021-07-04T13:31:35Z</time>
      </trkpt>
      <trkpt lat="44.30624" lon="4.43278">
        <ele>292</ele>
        <time>2021-07-04T13:31:37Z</time>
      </trkpt>
      <trkpt lat="44.30618" lon="4.4328">
        <ele>292</ele>
        <time>2021-07-04T13:31:38Z</time>
      </trkpt>
      <trkpt lat="44.30608" lon="4.43282">
        <ele>292</ele>
        <time>2021-07-04T13:31:41Z</time>
      </trkpt>
      <trkpt lat="44.30598" lon="4.43284">
        <ele>292</ele>
        <time>2021-07-04T13:31:43Z</time>
      </trkpt>
      <trkpt lat="44.3058" lon="4.43288">
        <ele>292</ele>
        <time>2021-07-04T13:31:47Z</time>
      </trkpt>
      <trkpt lat="44.30563" lon="4.43288">
        <ele>292</ele>
        <time>2021-07-04T13:31:51Z</time>
      </trkpt>
      <trkpt lat="44.3054" lon="4.43282">
        <ele>291</ele>
        <time>2021-07-04T13:31:57Z</time>
      </trkpt>
      <trkpt lat="44.30516" lon="4.43275">
        <ele>290</ele>
        <time>2021-07-04T13:32:02Z</time>
      </trkpt>
      <trkpt lat="44.30486" lon="4.43265">
        <ele>289</ele>
        <time>2021-07-04T13:32:10Z</time>
      </trkpt>
      <trkpt lat="44.30446" lon="4.43253">
        <ele>288</ele>
        <time>2021-07-04T13:32:19Z</time>
      </trkpt>
      <trkpt lat="44.30407" lon="4.43237">
        <ele>287</ele>
        <time>2021-07-04T13:32:29Z</time>
      </trkpt>
      <trkpt lat="44.30362" lon="4.43221">
        <ele>286</ele>
        <time>2021-07-04T13:32:39Z</time>
      </trkpt>
      <trkpt lat="44.30284" lon="4.43195">
        <ele>283</ele>
        <time>2021-07-04T13:32:58Z</time>
      </trkpt>
      <trkpt lat="44.30258" lon="4.43193">
        <ele>282</ele>
        <time>2021-07-04T13:33:04Z</time>
      </trkpt>
      <trkpt lat="44.30236" lon="4.43204">
        <ele>282</ele>
        <time>2021-07-04T13:33:10Z</time>
      </trkpt>
      <trkpt lat="44.30197" lon="4.43199">
        <ele>280</ele>
        <time>2021-07-04T13:33:19Z</time>
      </trkpt>
      <trkpt lat="44.30176" lon="4.43186">
        <ele>279</ele>
        <time>2021-07-04T13:33:24Z</time>
      </trkpt>
      <trkpt lat="44.30142" lon="4.43157">
        <ele>275</ele>
        <time>2021-07-04T13:33:33Z</time>
      </trkpt>
      <trkpt lat="44.30107" lon="4.43136">
        <ele>271</ele>
        <time>2021-07-04T13:33:42Z</time>
      </trkpt>
      <trkpt lat="44.30095" lon="4.43122">
        <ele>269</ele>
        <time>2021-07-04T13:33:46Z</time>
      </trkpt>
      <trkpt lat="44.30095" lon="4.4309">
        <ele>268</ele>
        <time>2021-07-04T13:33:51Z</time>
      </trkpt>
      <trkpt lat="44.30091" lon="4.43076">
        <ele>266</ele>
        <time>2021-07-04T13:33:54Z</time>
      </trkpt>
      <trkpt lat="44.3007" lon="4.43052">
        <ele>262</ele>
        <time>2021-07-04T13:34:00Z</time>
      </trkpt>
      <trkpt lat="44.30058" lon="4.4303">
        <ele>260</ele>
        <time>2021-07-04T13:34:05Z</time>
      </trkpt>
      <trkpt lat="44.3002" lon="4.4295">
        <ele>252</ele>
        <time>2021-07-04T13:34:21Z</time>
      </trkpt>
      <trkpt lat="44.30003" lon="4.42914">
        <ele>250</ele>
        <time>2021-07-04T13:34:28Z</time>
      </trkpt>
      <trkpt lat="44.29996" lon="4.42888">
        <ele>247</ele>
        <time>2021-07-04T13:34:33Z</time>
      </trkpt>
      <trkpt lat="44.29994" lon="4.42846">
        <ele>244</ele>
        <time>2021-07-04T13:34:40Z</time>
      </trkpt>
      <trkpt lat="44.29983" lon="4.42838">
        <ele>243</ele>
        <time>2021-07-04T13:34:43Z</time>
      </trkpt>
      <trkpt lat="44.29925" lon="4.42846">
        <ele>242</ele>
        <time>2021-07-04T13:34:56Z</time>
      </trkpt>
      <trkpt lat="44.2989" lon="4.42862">
        <ele>242</ele>
        <time>2021-07-04T13:35:05Z</time>
      </trkpt>
      <trkpt lat="44.29854" lon="4.42862">
        <ele>242</ele>
        <time>2021-07-04T13:35:13Z</time>
      </trkpt>
      <trkpt lat="44.29816" lon="4.42828">
        <ele>243</ele>
        <time>2021-07-04T13:35:24Z</time>
      </trkpt>
      <trkpt lat="44.2976" lon="4.42764">
        <ele>243</ele>
        <time>2021-07-04T13:35:41Z</time>
      </trkpt>
      <trkpt lat="44.29733" lon="4.42751">
        <ele>243</ele>
        <time>2021-07-04T13:35:47Z</time>
      </trkpt>
      <trkpt lat="44.29706" lon="4.42721">
        <ele>244</ele>
        <time>2021-07-04T13:35:55Z</time>
      </trkpt>
      <trkpt lat="44.29656" lon="4.42671">
        <ele>246</ele>
        <time>2021-07-04T13:36:10Z</time>
      </trkpt>
      <trkpt lat="44.29652" lon="4.42648">
        <ele>248</ele>
        <time>2021-07-04T13:36:14Z</time>
      </trkpt>
      <trkpt lat="44.29596" lon="4.42593">
        <ele>251</ele>
        <time>2021-07-04T13:36:30Z</time>
      </trkpt>
      <trkpt lat="44.29529" lon="4.42488">
        <ele>258</ele>
        <time>2021-07-04T13:36:53Z</time>
      </trkpt>
      <trkpt lat="44.2945" lon="4.42443">
        <ele>260</ele>
        <time>2021-07-04T13:37:13Z</time>
      </trkpt>
      <trkpt lat="44.29404" lon="4.42411">
        <ele>261</ele>
        <time>2021-07-04T13:37:25Z</time>
      </trkpt>
      <trkpt lat="44.29363" lon="4.42369">
        <ele>263</ele>
        <time>2021-07-04T13:37:37Z</time>
      </trkpt>
      <trkpt lat="44.29305" lon="4.42342">
        <ele>261</ele>
        <time>2021-07-04T13:37:51Z</time>
      </trkpt>
      <trkpt lat="44.29236" lon="4.42297">
        <ele>260</ele>
        <time>2021-07-04T13:38:09Z</time>
      </trkpt>
      <trkpt lat="44.29178" lon="4.42286">
        <ele>258</ele>
        <time>2021-07-04T13:38:23Z</time>
      </trkpt>
      <trkpt lat="44.29188" lon="4.4225">
        <ele>262</ele>
        <time>2021-07-04T13:38:29Z</time>
      </trkpt>
      <trkpt lat="44.29188" lon="4.42186">
        <ele>266</ele>
        <time>2021-07-04T13:38:40Z</time>
      </trkpt>
      <trkpt lat="44.29223" lon="4.42058">
        <ele>273</ele>
        <time>2021-07-04T13:39:03Z</time>
      </trkpt>
      <trkpt lat="44.29231" lon="4.41925">
        <ele>272</ele>
        <time>2021-07-04T13:39:25Z</time>
      </trkpt>
      <trkpt lat="44.29229" lon="4.41825">
        <ele>268</ele>
        <time>2021-07-04T13:39:42Z</time>
      </trkpt>
      <trkpt lat="44.29257" lon="4.41754">
        <ele>265</ele>
        <time>2021-07-04T13:39:55Z</time>
      </trkpt>
      <trkpt lat="44.29281" lon="4.41737">
        <ele>265</ele>
        <time>2021-07-04T13:40:02Z</time>
      </trkpt>
      <trkpt lat="44.29276" lon="4.41714">
        <ele>262</ele>
        <time>2021-07-04T13:40:06Z</time>
      </trkpt>
      <trkpt lat="44.2928" lon="4.41691">
        <ele>260</ele>
        <time>2021-07-04T13:40:10Z</time>
      </trkpt>
      <trkpt lat="44.29303" lon="4.41653">
        <ele>258</ele>
        <time>2021-07-04T13:40:18Z</time>
      </trkpt>
      <trkpt lat="44.29289" lon="4.41587">
        <ele>249</ele>
        <time>2021-07-04T13:40:30Z</time>
      </trkpt>
      <trkpt lat="44.29328" lon="4.41523">
        <ele>246</ele>
        <time>2021-07-04T13:40:44Z</time>
      </trkpt>
      <trkpt lat="44.29355" lon="4.41495">
        <ele>245</ele>
        <time>2021-07-04T13:40:51Z</time>
      </trkpt>
      <trkpt lat="44.29367" lon="4.41423">
        <ele>239</ele>
        <time>2021-07-04T13:41:04Z</time>
      </trkpt>
      <trkpt lat="44.294" lon="4.41338">
        <ele>232</ele>
        <time>2021-07-04T13:41:20Z</time>
      </trkpt>
      <trkpt lat="44.29439" lon="4.41256">
        <ele>226</ele>
        <time>2021-07-04T13:41:36Z</time>
      </trkpt>
      <trkpt lat="44.29505" lon="4.41274">
        <ele>226</ele>
        <time>2021-07-04T13:41:52Z</time>
      </trkpt>
      <trkpt lat="44.29464" lon="4.41402">
        <ele>242</ele>
        <time>2021-07-04T13:42:16Z</time>
      </trkpt>
      <trkpt lat="44.29498" lon="4.41487">
        <ele>252</ele>
        <time>2021-07-04T13:42:32Z</time>
      </trkpt>
      <trkpt lat="44.29565" lon="4.4154">
        <ele>252</ele>
        <time>2021-07-04T13:42:50Z</time>
      </trkpt>
      <trkpt lat="44.29583" lon="4.41559">
        <ele>254</ele>
        <time>2021-07-04T13:42:55Z</time>
      </trkpt>
      <trkpt lat="44.29576" lon="4.41606">
        <ele>259</ele>
        <time>2021-07-04T13:43:03Z</time>
      </trkpt>
      <trkpt lat="44.29613" lon="4.41697">
        <ele>267</ele>
        <time>2021-07-04T13:43:21Z</time>
      </trkpt>
      <trkpt lat="44.297" lon="4.41773">
        <ele>269</ele>
        <time>2021-07-04T13:43:45Z</time>
      </trkpt>
      <trkpt lat="44.29689" lon="4.41715">
        <ele>267</ele>
        <time>2021-07-04T13:43:55Z</time>
      </trkpt>
      <trkpt lat="44.29696" lon="4.41656">
        <ele>265</ele>
        <time>2021-07-04T13:44:05Z</time>
      </trkpt>
      <trkpt lat="44.29734" lon="4.41643">
        <ele>263</ele>
        <time>2021-07-04T13:44:14Z</time>
      </trkpt>
      <trkpt lat="44.29816" lon="4.41586">
        <ele>257</ele>
        <time>2021-07-04T13:44:35Z</time>
      </trkpt>
      <trkpt lat="44.29931" lon="4.41611">
        <ele>255</ele>
        <time>2021-07-04T13:45:02Z</time>
      </trkpt>
      <trkpt lat="44.3003" lon="4.4169">
        <ele>253</ele>
        <time>2021-07-04T13:45:29Z</time>
      </trkpt>
      <trkpt lat="44.30068" lon="4.41708">
        <ele>253</ele>
        <time>2021-07-04T13:45:38Z</time>
      </trkpt>
      <trkpt lat="44.30086" lon="4.41617">
        <ele>259</ele>
        <time>2021-07-04T13:45:54Z</time>
      </trkpt>
      <trkpt lat="44.30112" lon="4.41577">
        <ele>263</ele>
        <time>2021-07-04T13:46:03Z</time>
      </trkpt>
      <trkpt lat="44.30175" lon="4.41515">
        <ele>266</ele>
        <time>2021-07-04T13:46:21Z</time>
      </trkpt>
      <trkpt lat="44.30277" lon="4.4147">
        <ele>269</ele>
        <time>2021-07-04T13:46:46Z</time>
      </trkpt>
      <trkpt lat="44.30316" lon="4.41467">
        <ele>270</ele>
        <time>2021-07-04T13:46:55Z</time>
      </trkpt>
      <trkpt lat="44.30353" lon="4.41504">
        <ele>272</ele>
        <time>2021-07-04T13:47:06Z</time>
      </trkpt>
      <trkpt lat="44.30477" lon="4.41595">
        <ele>279</ele>
        <time>2021-07-04T13:47:39Z</time>
      </trkpt>
      <trkpt lat="44.30501" lon="4.41591">
        <ele>279</ele>
        <time>2021-07-04T13:47:44Z</time>
      </trkpt>
      <trkpt lat="44.30537" lon="4.41573">
        <ele>278</ele>
        <time>2021-07-04T13:47:53Z</time>
      </trkpt>
      <trkpt lat="44.30599" lon="4.41536">
        <ele>277</ele>
        <time>2021-07-04T13:48:09Z</time>
      </trkpt>
      <trkpt lat="44.30638" lon="4.41555">
        <ele>279</ele>
        <time>2021-07-04T13:48:18Z</time>
      </trkpt>
      <trkpt lat="44.30698" lon="4.41524">
        <ele>278</ele>
        <time>2021-07-04T13:48:33Z</time>
      </trkpt>
      <trkpt lat="44.30722" lon="4.41496">
        <ele>276</ele>
        <time>2021-07-04T13:48:41Z</time>
      </trkpt>
      <trkpt lat="44.30792" lon="4.41495">
        <ele>272</ele>
        <time>2021-07-04T13:48:57Z</time>
      </trkpt>
      <trkpt lat="44.30824" lon="4.41443">
        <ele>266</ele>
        <time>2021-07-04T13:49:09Z</time>
      </trkpt>
      <trkpt lat="44.30853" lon="4.41449">
        <ele>265</ele>
        <time>2021-07-04T13:49:15Z</time>
      </trkpt>
      <trkpt lat="44.30872" lon="4.41444">
        <ele>265</ele>
        <time>2021-07-04T13:49:20Z</time>
      </trkpt>
      <trkpt lat="44.30925" lon="4.41335">
        <ele>269</ele>
        <time>2021-07-04T13:49:42Z</time>
      </trkpt>
      <trkpt lat="44.30955" lon="4.41278">
        <ele>271</ele>
        <time>2021-07-04T13:49:54Z</time>
      </trkpt>
      <trkpt lat="44.31068" lon="4.41176">
        <ele>277</ele>
        <time>2021-07-04T13:50:25Z</time>
      </trkpt>
      <trkpt lat="44.31185" lon="4.41174">
        <ele>282</ele>
        <time>2021-07-04T13:50:52Z</time>
      </trkpt>
      <trkpt lat="44.31277" lon="4.41093">
        <ele>285</ele>
        <time>2021-07-04T13:51:18Z</time>
      </trkpt>
      <trkpt lat="44.31305" lon="4.40983">
        <ele>283</ele>
        <time>2021-07-04T13:51:37Z</time>
      </trkpt>
      <trkpt lat="44.31327" lon="4.40996">
        <ele>282</ele>
        <time>2021-07-04T13:51:43Z</time>
      </trkpt>
      <trkpt lat="44.31352" lon="4.41057">
        <ele>284</ele>
        <time>2021-07-04T13:51:55Z</time>
      </trkpt>
      <trkpt lat="44.31375" lon="4.41073">
        <ele>286</ele>
        <time>2021-07-04T13:52:01Z</time>
      </trkpt>
      <trkpt lat="44.31399" lon="4.41084">
        <ele>287</ele>
        <time>2021-07-04T13:52:07Z</time>
      </trkpt>
      <trkpt lat="44.31545" lon="4.41083">
        <ele>290</ele>
        <time>2021-07-04T13:52:41Z</time>
      </trkpt>
      <trkpt lat="44.31623" lon="4.4108">
        <ele>293</ele>
        <time>2021-07-04T13:52:59Z</time>
      </trkpt>
      <trkpt lat="44.3166" lon="4.41088">
        <ele>295</ele>
        <time>2021-07-04T13:53:08Z</time>
      </trkpt>
      <trkpt lat="44.31698" lon="4.41104">
        <ele>296</ele>
        <time>2021-07-04T13:53:17Z</time>
      </trkpt>
      <trkpt lat="44.31729" lon="4.41131">
        <ele>298</ele>
        <time>2021-07-04T13:53:25Z</time>
      </trkpt>
      <trkpt lat="44.31742" lon="4.41143">
        <ele>298</ele>
        <time>2021-07-04T13:53:29Z</time>
      </trkpt>
      <trkpt lat="44.31747" lon="4.41131">
        <ele>298</ele>
        <time>2021-07-04T13:53:31Z</time>
      </trkpt>
      <trkpt lat="44.31778" lon="4.41151">
        <ele>301</ele>
        <time>2021-07-04T13:53:39Z</time>
      </trkpt>
      <trkpt lat="44.31829" lon="4.41147">
        <ele>304</ele>
        <time>2021-07-04T13:53:51Z</time>
      </trkpt>
      <trkpt lat="44.31829" lon="4.41199">
        <ele>303</ele>
        <time>2021-07-04T13:54:00Z</time>
      </trkpt>
    </trkseg>
  </trk>
</gpx>